Regional Weather Roundup
Issued by NWS Upton, NY

Current Version | Previous Version | Graphics & Text | Print | Product List | Glossary Off
Versions: 1 2 3 4 5 6 7 8 9 10 11 12 13 14 15 16 17 18 19 20 21 22 23 24 25 26 27 28 29 30 31 32 33 34 35 36 37 38 39 40 41 42 43 44 45 46 47 48 49 50
000 ASUS41 KOKX 272118 RWROKX REGIONAL WEATHER ROUNDUP NATIONAL WEATHER SERVICE NEW YORK NY 500 PM EDT WED MAY 27 2015 NOTE: "FAIR" INDICATES FEW OR NO CLOUDS BELOW 12,000 FEET WITH NO SIGNIFICANT WEATHER AND/OR OBSTRUCTIONS TO VISIBILITY. NYZ071-072-176-178-NJZ106-104-272200- NEW YORK CITY METRO AREA CITY SKY/WX TMP DP RH WIND PRES REMARKS CENTRAL PARK SUNNY 79 63 57 VRB3 30.11F LAGUARDIA APRT MOSUNNY 75 61 61 S18 30.08F KENNEDY INTL MOSUNNY 72 60 66 S30G38 30.11F NEWARK/LIBERTY MOSUNNY 84 68 58 SE14 30.06F BRNX BOT. GARD N/A 75 63 64 SE8 30.10S TETERBORO MOSUNNY 83 65 54 SE9G18 30.06F $$ NYZ177-179-078>081-272200- LONG ISLAND NEW YORK CITY SKY/WX TMP DP RH WIND PRES REMARKS FARMINGDALE SUNNY 71 61 70 S23G31 30.14F ISLIP MOSUNNY 70 61 73 S23G33 30.14F SHIRLEY MOSUNNY 70 60 70 S20G31 30.17S WESTHAMPTON CLOUDY 68 60 75 SW12G24 30.19S MONTAUK POINT N/A 66 59 78 S10G23 30.19S $$ NYZ052-065-067-272200- HUDSON VALLEY CITY SKY/WX TMP DP RH WIND PRES REMARKS WHITE PLAINS MOSUNNY 76 65 68 SE13G21 30.10F NEWBURGH PTSUNNY 81 72 74 S9 30.08S MONTGOMERY CLOUDY 79 67 66 W8G21 30.05S POUGHKEEPSIE SUNNY 84 68 58 S12G17 30.04F ALBANY TSTM 77 68 73 S17G25 30.01F $$ NJZ001-105-106-008-010-013-015-019>022-104-272200- NEW JERSEY CITY SKY/WX TMP DP RH WIND PRES REMARKS NEWARK/LIBERTY MOSUNNY 84 68 58 SE14 30.06F TETERBORO MOSUNNY 83 65 54 SE9G18 30.06F CALDWELL CLOUDY 79 70 74 E5 30.07F MORRISTOWN PTSUNNY 82 73 74 SE5 30.07F SOMERVILLE MOSUNNY 87 65 47 S10G20 30.05S SUSSEX RAIN 71 64 78 SW9G18 30.12R ANDOVER N/A 83 67 58 SW10G17 30.08S TRENTON MOSUNNY 87 65 47 SW14G24 30.08S MILLVILLE MOSUNNY 78 67 68 S9G18 30.14R ATLANTIC CITY SUNNY 75 62 64 S18G28 30.15S WRIGHTSTOWN MOSUNNY 87 69 54 S13G18 30.07F HX 91 TOMS RIVER SUNNY N/A N/A N/A S17 30.12S BELMAR SUNNY 81 64 57 S12G20 30.12S $$ PAZ047>061-062-071-272200- EASTERN PENNSYLVANIA CITY SKY/WX TMP DP RH WIND PRES REMARKS PHILADELPHIA PTSUNNY 88 67 49 SW17G25 30.10R HX 91 ALLENTOWN TSTM 72 66 83 SW7 30.12R SCRANTON CLOUDY 72 67 84 CALM 30.10F $$ CTZ002-004>006-009-010-012-RIZ004-006-007-MAZ004-011-015-272200- SOUTHERN NEW ENGLAND IN CT CITY SKY/WX TMP DP RH WIND PRES REMARKS BRADLEY INTL MOSUNNY 83 67 58 S20G25 30.07R HARTFORD PTSUNNY 80 67 64 S15G23 30.09R DANBURY MOSUNNY 77 66 68 S12G20 30.12S WTRBRY/OXFORD CLOUDY 75 64 69 S8 30.15S BRIDGEPORT SUNNY 73 63 70 S15 30.13S MERIDEN CLOUDY 76 64 66 S16G24 30.12R NEW HAVEN MOSUNNY 71 62 73 SW9 30.14S CHESTER MOCLDY 70 64 83 S14G22 30.17R GROTON CLOUDY 68 60 75 SW10 30.16S WILLIMANTIC PTSUNNY 78 66 66 S14G22 30.12S IN RI CITY SKY/WX TMP DP RH WIND PRES REMARKS PROVIDENCE CLOUDY 73 63 70 SW17G29 30.15S BLOCK ISLAND CLOUDY 64 55 72 SW18G28 30.18F WESTERLY CLOUDY 66 58 75 SW14G24 30.18F IN MA CITY SKY/WX TMP DP RH WIND PRES REMARKS BOSTON MOSUNNY 80 66 62 S23G32 30.06S WORCESTER MOSUNNY 81 64 56 SW22G33 30.10S WESTFIELD PTSUNNY 85 66 53 S17G26 30.06R PROVINCETOWN CLOUDY 68 57 68 SW25G33 30.14F NANTUCKET MOSUNNY 64 57 78 MISG 30.20F $$ ANZ330-335-338-340-345-350-353-355-272200- COASTAL MARINE OBSERVATIONS STATION/POSITION TIME SKY/WX TEMP WIND PRES VSBY WAVE AIR SEA DIR/SP/G HT/PER (UTC) (F) (DEG/KT/KT) (MB) (MI) (FT/S) NY HARB ENTRANCE 2050 62 55 190/ 23/ 25 1019.3 5/ 6 4S FIRE IS 2003 58 N/A 5/ 6 20S FIRE ISLAND 2050 62 57 190/ 17/ 21 1021.1 4/ 6 GREAT SOUTH BAY 2000 64 67 230/ 19/ 25 N/A 23SW MTP 2050 60 54 200/ 16/ 17 1021.5 4/ 6 HUDSON CANYON NOT AVBL KINGS POINT 2000 69 63 200/ 19/ 22 1019.1 CENTRAL LI SOUND 2030 66 57 210/ 19/ 23 N/A EASTERN LI SOUND 2000 63 210/ 8/ 12 N/A ROBBINS REEF 2000 67 160/ 20/ 21 1017.6 $$ >>>>>>>>>>>>>>>>>>>>>>>>>>>> KEY <<<<<<<<<<<<<<<<<<<<<<<<<<< > < > SKY/WX - SKY CONDITION/PRESENT WEATHER < > TMP - TEMPERATURE IN FAHRENHEIT < > DP - DEWPOINT IN FAHRENHEIT < > RH - RELATIVE HUMIDITY IN PERCENT < > WIND - DIRECTION AND SPEED IN MPH < > PRES - MEAN SEA LEVEL PRESSURE IN INCHES OF HG < > WCI - WIND CHILL INDEX < > VSB - VISIBILITY IN MILES < > HX - HEAT INDEX < > TC - TEMPERATURE IN CELSIUS < > VRB - VARIABLE WIND DIRECTION < > < >>>>>>>>>>>>>>>>>>>>>>>>>>>> KEY <<<<<<<<<<<<<<<<<<<<<<<<<<<

USA.gov is the U.S. government's official web portal to all federal, state and local government web resources and services.